Hourly Weather Roundup
Issued by NWS Central Illinois

Home | Current Version | Previous Version | Text Only | Print | Product List | Glossary On
Versions: 1 2 3 4 5 6 7 8 9 10 11 12 13 14 15 16 17 18 19 20 21 22 23 24 25 26 27 28 29 30 31 32 33 34 35 36 37 38 39 40 41 42 43 44 45 46 47 48 49 50
000
NZUS43 KILX 291110
HWRILX

AREA WEATHER ROUNDUP
NATIONAL WEATHER SERVICE, LINCOLN IL
600 AM CDT SUN MAR 29 2015


CITY           SKY/WX    TMP DP  RH WIND       PRES   REMARKS
BLOOMINGTON    PTCLDY    29  22  75 S18       30.16F WCI  17
CHAMPAIGN      CLEAR     28  20  71 S12       30.21S WCI  18
DECATUR        PTCLDY    31  20  63 S14       30.19F WCI  21
EFFINGHAM      CLEAR     31  17  58 SE7       30.26S WCI  24
FLORA          CLEAR     28  22  80 SE8       30.25F WCI  20
GALESBURG      CLEAR     31  22  69 S10       30.09R WCI  22
JACKSONVILLE   CLEAR     34  22  61 SE13G20   30.13F WCI  25
LACON          PTCLDY    31  18  59 S13       30.11F WCI  21
LAWRENCEVILLE  CLEAR     28  20  71 S8        30.28S WCI  20
LITCHFIELD     CLEAR     30  20  66 S13       30.19S WCI  20
$$


CITY           SKY/WX    TMP DP  RH WIND       PRES   REMARKS
LINCOLN        CLEAR     32  23  69 S10       30.18F WCI  24
MACOMB         CLEAR     31  23  71 S14       30.10F WCI  21
MATTOON        CLEAR     30  19  63 S13       30.22S WCI  20
MT CARMEL AP   CLEAR     30  23  74 S6        30.28S WCI  24
OLNEY-NOBLE AP CLEAR     30  21  69 SE7       30.27R WCI  23
PARIS          CLEAR     28  23  82 SE8       30.25S WCI  19
PEORIA         CLEAR     31  21  66 S16G24    30.12F WCI  20
PONTIAC        CLEAR     29  22  75 S14       30.16F WCI  18
RANTOUL        PTCLDY    27  22  80 S9        30.21R WCI  18
ROBINSON       CLEAR     27  20  75 SE8       30.28R WCI  19
SPRINGFIELD    CLEAR     32  21  64 S16       30.16F WCI  21
TAYLORVILLE    CLEAR     32  21  64 S13       30.19F WCI  22
$$

...REGIONAL REPORTS...


CITY           SKY/WX    TMP DP  RH WIND       PRES   REMARKS
CHICAGO O`HARE MOCLDY    30  14  51 S13       30.13F WCI  20
KANKAKEE       PTCLDY    28  19  67 S12       30.18F WCI  18
MOLINE         CLEAR     33  19  56 S10       30.08R WCI  25
MOUNT VERNON   CLEAR     30  18  59 SE7       30.25S WCI  23
PITTSFIELD     CLEAR     33  25  73 SE14      30.10F WCI  23
QUINCY         CLEAR     35  24  64 S13       30.07F WCI  26
ROCKFORD       PTCLDY    29  18  63 S14       30.10F WCI  18
$$


CITY           SKY/WX    TMP DP  RH WIND       PRES   REMARKS
BURLINGTON     CLEAR     33  22  63 S14       30.07R WCI  23
CEDAR RAPIDS   PTCLDY    31  22  69 SE20G28   29.92F WCI  19
DES MOINES     RAIN      39  32  76 S15       29.88R WCI  31
KIRKSVILLE     MOCLDY    36  30  79 S21       29.98F WCI  25
OTTUMWA        MOCLDY    35  26  69 S20       29.98S WCI  24
ST LOUIS       CLEAR     35  21  56 SE14G21   30.17F WCI  26
$$


CITY           SKY/WX    TMP DP  RH WIND       PRES   REMARKS
TERRE HAUTE    CLEAR     27  17  66 S8        30.27R WCI  19
EVANSVILLE     CLEAR     31  19  61 SE3       30.30S
INDIANAPOLIS   CLEAR     25  15  66 SE10      30.26F WCI  15
LAFAYETTE      CLEAR     28  16  60 S8        30.24F WCI  20
MADISON        MOCLDY    31  18  58 S12G22    30.03S WCI  22
MILWAUKEE      MOCLDY    30  14  51 S10       30.08F WCI  21
$$





USA.gov is the U.S. government's official web portal to all federal, state and local government web resources and services.